Powrót do katalogu

FENGYUN 1C DEB

AktywnyPO
NORAD 30326·DEBRIS·🇨🇳 China

Wystrzelony May 10, 1999 z Taiyuan Satellite Launch Center

Loading…

Następne Przeloty (najbliższe 24 godziny)

TLE

ŚwieżeSource: Space-Track

Epoka: Sep 14, 2026, 11:51 UTC

1 30326U 99025AAM 26257.49389282  .00000086  00000-0  10144-3 0  9993
2 30326  98.6154 128.3540 0141860 358.8037   1.2762 13.85574963992746

Śledź FENGYUN 1C DEB w czasie rzeczywistym z AllMySat

Download on the App Store